TimeCDT,TemperatureF,Dew PointF,Humidity,Sea Level PressureIn,VisibilityMPH,Wind Direction,Wind SpeedMPH,Gust SpeedMPH,PrecipitationIn,Events,Conditions,WindDirDegrees,DateUTC
12:15 AM,69.8,64.4,83,30.04,10.0,SSE,8.1,-,N/A,,Overcast,160,2013-07-14 05:15:00
12:35 AM,68.0,62.6,83,30.04,10.0,SSE,8.1,-,N/A,,Mostly Cloudy,150,2013-07-14 05:35:00
12:52 AM,68.0,62.6,83,30.04,10.0,SSE,4.6,-,N/A,,Clear,160,2013-07-14 05:52:00
1:14 AM,68.0,62.6,83,30.04,10.0,SSE,4.6,-,N/A,,Clear,150,2013-07-14 06:14:00
1:35 AM,66.2,60.8,83,30.03,10.0,SSE,5.8,-,N/A,,Clear,160,2013-07-14 06:35:00
1:53 AM,66.2,60.8,83,30.03,10.0,SSE,5.8,-,N/A,,Clear,150,2013-07-14 06:53:00
2:15 AM,66.2,60.8,83,30.03,10.0,SSE,4.6,-,N/A,,Clear,150,2013-07-14 07:15:00
2:35 AM,64.4,60.8,88,30.03,10.0,SE,3.5,-,N/A,,Clear,140,2013-07-14 07:35:00
2:53 AM,64.4,60.8,88,30.02,10.0,SSE,5.8,-,N/A,,Clear,150,2013-07-14 07:53:00
3:14 AM,64.4,59.0,83,30.03,10.0,SSE,3.5,-,N/A,,Clear,160,2013-07-14 08:14:00
3:35 AM,64.4,59.0,83,30.03,10.0,Calm,Calm,-,N/A,,Clear,0,2013-07-14 08:35:00
3:52 AM,64.4,60.8,88,30.03,10.0,Calm,Calm,-,N/A,,Clear,0,2013-07-14 08:52:00
4:15 AM,62.6,59.0,88,30.04,10.0,Calm,Calm,-,N/A,,Clear,0,2013-07-14 09:15:00
4:35 AM,62.6,59.0,88,30.03,10.0,ESE,3.5,-,N/A,,Clear,110,2013-07-14 09:35:00
4:53 AM,64.4,59.0,83,30.03,10.0,ESE,3.5,-,N/A,,Clear,110,2013-07-14 09:53:00
5:15 AM,62.6,59.0,88,30.04,10.0,East,3.5,-,N/A,,Clear,100,2013-07-14 10:15:00
5:35 AM,62.6,59.0,88,30.03,10.0,ESE,5.8,-,N/A,,Clear,110,2013-07-14 10:35:00
5:53 AM,62.6,59.0,88,30.03,10.0,ESE,4.6,-,N/A,,Clear,120,2013-07-14 10:53:00
6:15 AM,62.6,60.8,94,30.02,10.0,SE,4.6,-,N/A,,Clear,130,2013-07-14 11:15:00
6:35 AM,64.4,60.8,88,30.03,10.0,SE,4.6,-,N/A,,Clear,140,2013-07-14 11:35:00
6:52 AM,64.4,60.8,88,30.05,10.0,SE,3.5,-,N/A,,Clear,130,2013-07-14 11:52:00
7:15 AM,66.2,60.8,83,30.05,10.0,SE,6.9,-,N/A,,Scattered Clouds,140,2013-07-14 12:15:00
7:35 AM,66.2,60.8,83,30.06,10.0,SSE,5.8,-,N/A,Thunderstorm,Mostly Cloudy,150,2013-07-14 12:35:00
7:53 AM,66.2,60.8,83,30.06,10.0,SE,6.9,-,N/A,Thunderstorm,Overcast,140,2013-07-14 12:53:00
8:15 AM,66.2,60.8,83,30.08,10.0,SSE,4.6,-,N/A,Thunderstorm,Overcast,160,2013-07-14 13:15:00
8:35 AM,66.2,60.8,83,30.09,10.0,SSE,5.8,-,N/A,Thunderstorm,Overcast,160,2013-07-14 13:35:00
8:53 AM,64.4,60.8,88,30.10,10.0,SSE,5.8,-,N/A,Thunderstorm,Overcast,150,2013-07-14 13:53:00
9:11 AM,64.4,62.6,94,30.10,7.0,Calm,Calm,-,0.01,Rain-Thunderstorm,Light Thunderstorms and Rain,0,2013-07-14 14:11:00
9:35 AM,64.4,62.6,94,30.11,1.2,ESE,5.8,-,0.50,Rain-Thunderstorm,Heavy Thunderstorms and Rain,120,2013-07-14 14:35:00
9:53 AM,62.6,62.6,100,30.11,5.0,SE,4.6,-,0.59,Rain-Thunderstorm,Thunderstorms and Rain,140,2013-07-14 14:53:00
10:15 AM,62.6,62.6,100,30.12,5.0,SE,5.8,-,0.07,Rain-Thunderstorm,Thunderstorms and Rain,130,2013-07-14 15:15:00
10:35 AM,62.6,60.8,94,30.14,4.0,ESE,4.6,-,0.15,Rain-Thunderstorm,Heavy Thunderstorms and Rain,120,2013-07-14 15:35:00
10:52 AM,62.6,60.8,94,30.14,4.0,East,3.5,-,0.22,Rain,Heavy Rain,90,2013-07-14 15:52:00
11:14 AM,62.6,60.8,94,30.12,5.0,ESE,5.8,-,0.06,Rain,Rain,110,2013-07-14 16:14:00
11:35 AM,62.6,60.8,94,30.11,4.0,East,6.9,-,0.08,Rain,Rain,90,2013-07-14 16:35:00
11:53 AM,62.6,60.8,94,30.12,4.0,ESE,6.9,-,0.08,Rain,Light Rain,120,2013-07-14 16:53:00
12:15 PM,62.6,62.6,100,30.12,5.0,SE,8.1,-,N/A,,Mostly Cloudy,130,2013-07-14 17:15:00
12:35 PM,62.6,62.6,100,30.13,7.0,SSE,9.2,-,N/A,Rain,Light Rain,160,2013-07-14 17:35:00
12:53 PM,62.6,62.6,100,30.13,7.0,SSE,6.9,-,0.02,Rain,Rain,160,2013-07-14 17:53:00
1:15 PM,62.6,62.6,100,30.14,5.0,SSE,6.9,-,0.07,Rain,Heavy Rain,160,2013-07-14 18:15:00
1:34 PM,62.6,62.6,100,30.14,7.0,South,5.8,-,0.10,Rain,Light Rain,170,2013-07-14 18:34:00
1:53 PM,62.6,62.6,100,30.15,7.0,SE,6.9,-,0.12,Rain,Rain,140,2013-07-14 18:53:00
2:15 PM,64.4,62.6,94,30.14,7.0,SE,8.1,-,0.02,Rain,Light Rain,130,2013-07-14 19:15:00
2:35 PM,64.4,62.6,94,30.15,7.0,South,6.9,-,0.04,Rain,Rain,170,2013-07-14 19:35:00
2:52 PM,64.4,62.6,94,30.16,5.0,South,4.6,-,0.04,Rain,Rain,180,2013-07-14 19:52:00
3:14 PM,64.4,62.6,94,30.17,4.0,South,5.8,-,0.01,Rain,Rain,180,2013-07-14 20:14:00
3:35 PM,64.4,62.6,94,30.17,7.0,South,6.9,-,0.02,Rain,Light Rain,170,2013-07-14 20:35:00
3:53 PM,64.4,62.6,94,30.17,7.0,South,8.1,-,0.04,Rain,Rain,180,2013-07-14 20:53:00
3:54 PM,64.4,62.6,94,30.17,7.0,South,8.1,-,0.05,Rain,Rain,170,2013-07-14 20:54:00
4:38 PM,64.4,62.6,94,30.16,5.0,SE,6.9,-,0.14,Rain,Light Rain,130,2013-07-14 21:38:00
4:53 PM,64.4,62.6,94,30.16,7.0,SSE,3.5,-,0.15,Rain,Light Rain,150,2013-07-14 21:53:00
5:15 PM,64.4,62.6,94,30.16,7.0,South,3.5,-,0.01,Rain,Light Rain,170,2013-07-14 22:15:00
5:34 PM,64.4,64.4,100,30.15,7.0,SSE,4.6,-,0.01,Rain,Light Rain,160,2013-07-14 22:34:00
5:53 PM,64.4,64.4,100,30.15,10.0,South,3.5,-,0.01,,Light Drizzle,170,2013-07-14 22:53:00
6:14 PM,64.4,64.4,100,30.16,10.0,Calm,Calm,-,N/A,,Overcast,0,2013-07-14 23:14:00
6:35 PM,64.4,64.4,100,30.16,10.0,Calm,Calm,-,N/A,,Overcast,0,2013-07-14 23:35:00
6:53 PM,64.4,64.4,100,30.17,10.0,Calm,Calm,-,N/A,,Overcast,0,2013-07-14 23:53:00
7:14 PM,64.4,62.6,94,30.17,10.0,Calm,Calm,-,N/A,,Overcast,0,2013-07-15 00:14:00
7:35 PM,66.2,64.4,94,30.17,10.0,Calm,Calm,-,N/A,,Overcast,0,2013-07-15 00:35:00
7:52 PM,66.2,64.4,94,30.17,10.0,ESE,3.5,-,N/A,,Overcast,110,2013-07-15 00:52:00
8:15 PM,64.4,64.4,100,30.18,7.0,Calm,Calm,-,N/A,,Overcast,0,2013-07-15 01:15:00
8:35 PM,64.4,64.4,100,30.18,7.0,Calm,Calm,-,N/A,,Overcast,0,2013-07-15 01:35:00
8:52 PM,64.4,64.4,100,30.18,7.0,Calm,Calm,-,N/A,,Overcast,0,2013-07-15 01:52:00
9:15 PM,64.4,64.4,100,30.19,5.0,Calm,Calm,-,N/A,,Overcast,0,2013-07-15 02:15:00
9:35 PM,64.4,62.6,94,30.20,7.0,Calm,Calm,-,N/A,,Overcast,0,2013-07-15 02:35:00
9:53 PM,64.4,64.4,100,30.20,5.0,Calm,Calm,-,N/A,,Overcast,0,2013-07-15 02:53:00
10:14 PM,64.4,64.4,100,30.21,7.0,ENE,3.5,-,N/A,,Overcast,60,2013-07-15 03:14:00
10:35 PM,64.4,64.4,100,30.21,4.0,NE,3.5,-,N/A,,Overcast,40,2013-07-15 03:35:00
10:52 PM,64.4,64.4,100,30.21,4.0,Calm,Calm,-,N/A,,Overcast,0,2013-07-15 03:52:00
11:15 PM,64.4,64.4,100,30.21,4.0,Calm,Calm,-,N/A,,Overcast,0,2013-07-15 04:15:00
11:35 PM,64.4,64.4,100,30.21,3.0,Calm,Calm,-,N/A,,Overcast,0,2013-07-15 04:35:00
11:52 PM,64.4,64.4,100,30.21,3.0,East,3.5,-,N/A,,Overcast,100,2013-07-15 04:52:00